Theta_e
337 342 347 350 348 348 347 347 345 344 342 339 337 339 339 339 340 341 342 343 343 343 343 344 346 347 347 347 347 347 346 348 348 348 347 346 347 346 345 345 345 340 344
340 342 345 349 349 349 345 342 340 340 339 335 334 334 333 333 333 334 336 337 339 341 344 344 345 346 347 346 345 345 346 347 346 345 345 344 346 346 345 344 345 341 344
340 341 345 347 347 344 342 340 338 336 332 330 329 328 327 326 327 327 328 329 331 335 338 339 342 344 344 344 344 344 344 345 345 342 342 343 344 346 344 344 343 344 345
340 339 341 340 343 341 338 335 332 329 328 327 324 323 323 323 324 325 325 326 326 328 330 333 336 340 339 339 342 342 342 343 343 341 341 341 341 344 344 343 343 344 344
339 338 338 339 340 337 334 331 328 326 324 322 321 321 321 322 323 324 324 325 325 326 327 328 329 332 335 334 337 340 341 342 339 338 339 340 342 343 345 343 343 344 343
337 336 336 338 336 334 330 328 325 323 320 318 319 319 320 320 320 320 321 322 323 323 325 325 326 327 328 330 332 335 338 339 337 339 338 340 339 344 345 343 344 344 342
336 337 336 335 334 331 327 325 322 319 316 316 317 317 318 318 318 319 320 321 322 322 323 323 323 324 324 325 328 330 334 334 336 337 338 339 336 343 345 343 343 343 343
334 334 332 328 330 329 325 321 317 315 314 314 315 316 316 316 316 318 318 318 319 320 321 321 322 322 322 323 324 325 329 329 330 332 336 335 338 340 342 343 343 343 343
331 329 329 328 325 323 322 320 316 314 313 314 315 315 315 315 315 316 315 315 316 317 318 318 319 319 320 321 322 323 326 327 327 333 333 338 335 338 341 343 343 343 342
326 325 325 324 321 319 317 317 316 314 313 313 313 312 312 312 312 314 314 314 316 317 316 316 316 317 317 318 319 321 322 323 328 329 334 334 337 338 341 342 342 343 342
320 321 321 318 317 316 316 312 313 311 309 308 310 310 313 315 315 315 314 314 315 316 316 316 317 315 315 316 316 318 319 321 329 330 331 332 336 338 339 341 341 343 342
318 318 318 316 314 314 310 312 312 311 313 312 314 314 315 315 315 313 313 312 313 313 315 315 316 315 315 315 316 318 318 318 321 330 331 331 335 337 338 339 340 339 340
319 318 315 314 314 313 311 312 313 313 313 314 314 315 315 315 315 315 315 315 316 313 315 314 314 315 316 317 319 320 319 318 319 328 331 329 333 337 337 337 337 339 337
316 316 316 314 312 312 311 311 312 312 314 314 315 315 315 315 314 313 313 314 315 314 315 315 316 318 318 318 318 318 318 321 323 327 329 324 330 336 337 338 337 335 334
314 315 315 313 312 310 310 310 311 313 314 315 315 315 315 314 313 312 313 314 314 314 314 316 318 316 319 319 320 319 321 323 324 325 328 320 326 334 335 337 336 334 334
314 314 315 312 311 310 309 309 311 313 314 315 316 315 314 314 314 313 312 313 313 313 315 316 320 319 321 321 320 320 321 323 324 325 325 324 323 328 333 335 334 333 334
314 314 313 311 310 308 308 310 312 314 314 315 315 314 314 314 314 314 313 312 312 314 316 320 320 317 317 315 313 315 316 317 322 324 326 328 325 321 326 330 332 334 334
314 312 312 308 308 308 309 311 313 314 315 315 315 315 314 314 314 312 312 312 313 314 318 319 317 314 312 312 310 311 313 313 316 322 324 325 325 324 323 327 328 333 334
313 312 310 309 307 308 309 311 312 312 314 314 315 315 313 312 313 313 312 313 315 313 318 316 314 316 312 312 310 310 309 309 311 318 322 324 325 326 326 322 321 323 331
311 311 310 308 307 309 310 311 313 313 315 315 315 314 312 312 311 313 313 314 318 316 315 315 313 315 316 315 311 308 306 306 308 308 315 324 326 326 325 325 326 324 325
309 308 307 306 308 309 309 310 311 312 313 314 312 311 311 311 311 312 314 313 317 316 314 315 313 314 313 317 315 311 308 307 305 305 308 318 323 325 325 325 326 327 328
306 307 306 307 308 309 310 311 312 313 313 312 312 311 311 311 312 311 313 315 316 315 315 314 314 314 316 317 313 311 306 307 306 304 304 307 313 320 318 322 325 324 326
305 306 306 307 308 308 308 310 311 312 313 311 311 310 311 310 311 312 314 316 316 316 313 314 314 315 315 315 314 313 311 303 302 304 303 303 304 311 315 316 317 318 321
304 306 307 307 307 308 308 309 309 311 309 310 311 310 311 310 311 313 314 315 317 316 314 314 314 314 316 313 315 311 314 312 302 300 303 302 302 303 310 311 311 315 320
305 306 307 307 307 308 308 309 311 309 310 310 309 309 310 311 312 312 314 314 315 317 315 316 316 315 313 312 310 309 309 311 305 302 298 300 303 300 304 306 310 310 318
304 306 307 306 306 307 307 308 309 309 308 307 309 310 311 312 313 313 315 317 317 316 316 315 315 314 314 311 310 309 309 309 305 301 298 296 298 297 301 307 308 309 314
Wind_Speed
7 13 11 14 12 11 10 10 8 9 9 5 2 6 6 6 6 7 7 7 8 7 7 8 9 10 8 9 9 9 10 11 11 12 10 12 12 12 13 11 8 11 11
12 13 10 13 13 12 10 8 4 7 6 5 5 5 6 7 7 8 9 9 10 11 9 9 11 11 11 10 9 10 10 11 11 10 11 9 9 13 13 12 10 10 9
13 12 11 12 12 11 11 8 6 6 6 6 6 6 6 7 7 8 9 10 11 11 12 12 14 13 13 12 9 8 11 11 11 10 11 11 12 13 15 12 9 10 10
13 12 9 10 11 11 9 8 6 5 6 6 6 6 6 6 7 8 9 10 11 12 12 12 13 14 12 12 11 9 10 11 12 11 10 11 11 15 15 14 13 12 11
12 11 8 10 11 9 9 8 7 6 6 6 6 5 6 6 7 8 9 10 12 12 13 13 13 13 13 11 11 10 10 11 13 13 14 13 11 16 17 16 14 12 13
12 10 9 10 11 9 9 8 7 6 6 5 5 5 5 6 7 8 9 10 11 12 12 13 14 14 13 13 10 11 10 12 11 14 15 14 10 17 20 19 15 13 12
12 11 11 9 9 10 8 7 7 6 5 5 5 5 5 6 7 8 9 10 11 12 12 13 13 13 12 13 13 12 11 11 9 11 13 12 12 18 22 20 17 17 16
11 10 9 8 7 8 8 7 6 5 4 3 5 5 5 7 8 8 9 9 11 12 12 13 13 13 13 13 12 13 11 7 7 8 14 9 14 19 22 21 20 20 20
10 9 8 9 8 7 7 6 5 4 2 4 6 6 6 7 7 7 7 8 10 11 11 12 13 13 13 14 13 11 8 7 6 7 11 10 13 15 25 23 22 21 21
8 8 8 7 7 6 6 5 4 4 4 4 5 5 5 5 4 5 6 5 12 13 13 12 14 14 15 14 14 13 9 7 9 7 9 8 16 29 28 23 22 22 22
8 8 8 8 7 6 5 4 5 5 3 1 1 2 4 4 5 5 4 9 12 12 13 14 15 14 15 15 13 13 11 8 8 6 6 13 11 21 23 22 24 23 23
12 10 9 9 7 6 4 5 3 2 1 3 4 5 4 5 5 6 6 7 10 10 12 12 13 14 12 7 6 9 7 10 9 9 7 14 21 21 23 22 21 24 24
12 10 11 9 8 7 4 3 2 1 2 2 4 3 3 4 4 5 5 5 6 5 6 8 9 7 9 8 8 7 7 8 7 5 9 10 18 22 20 19 20 25 19
13 12 12 10 8 7 4 4 2 1 2 2 2 3 3 3 4 5 5 6 5 5 7 7 6 9 10 8 7 7 6 8 4 5 8 10 12 23 25 25 19 20 23
13 12 12 11 9 7 6 3 2 2 2 2 2 2 3 4 4 4 4 5 5 5 6 7 7 5 6 4 1 4 4 4 5 3 2 4 14 18 20 20 24 21 22
13 12 12 12 9 7 5 4 2 2 1 2 2 2 3 4 4 5 5 5 5 5 6 7 6 5 5 7 10 6 4 4 2 3 2 7 15 8 14 21 22 23 23
12 11 12 11 10 8 6 4 2 1 1 2 1 2 3 4 5 5 4 5 5 5 7 6 5 4 5 5 9 8 8 8 5 3 2 4 8 11 7 7 18 21 29
11 12 12 9 10 8 5 3 2 1 1 0 1 2 3 4 4 4 4 4 4 5 5 3 3 3 4 6 7 7 7 6 8 8 4 3 4 6 4 3 5 14 26
12 13 13 12 11 8 6 4 2 1 1 1 1 2 2 2 2 3 3 3 5 3 3 3 2 1 5 6 7 7 7 7 7 6 5 4 5 7 5 3 7 9 21
10 11 12 11 11 8 5 3 2 2 1 1 1 2 1 1 2 1 2 3 3 3 4 4 4 1 5 8 7 8 6 5 5 6 6 3 5 7 5 1 0 3 8
9 12 12 13 11 7 4 2 2 1 1 1 2 2 2 2 2 1 2 3 3 3 4 4 3 4 4 4 4 7 6 7 9 8 7 5 5 7 7 5 7 3 10
8 10 11 10 9 5 3 2 1 1 1 2 2 2 2 1 1 1 3 2 3 4 5 6 2 1 2 4 4 2 2 3 7 8 7 8 8 5 7 7 12 7 11
9 10 10 9 7 4 3 3 2 2 1 2 2 1 1 1 0 0 2 1 3 3 4 4 0 1 2 4 6 4 1 3 2 4 9 8 9 5 7 9 10 8 9
9 9 9 8 6 5 2 1 2 2 1 1 1 1 1 0 1 1 1 3 3 2 4 3 1 2 1 2 2 5 4 4 3 2 4 6 8 10 8 8 8 5 9
7 7 7 7 6 4 2 1 1 2 1 2 0 2 1 2 2 2 2 3 3 3 3 5 3 3 2 1 1 0 3 6 4 3 2 3 5 7 6 6 5 3 10
7 7 6 6 5 4 2 1 2 2 1 1 2 2 2 2 2 3 3 3 4 4 5 4 2 3 2 2 1 1 0 1 3 3 3 2 3 4 5 5 4 3 5
Wind_Direction
171 153 181 150 158 160 163 138 131 115 80 78 81 51 41 23 11 1 356 358 348 330 316 309 304 307 300 285 260 248 222 205 196 195 187 184 184 184 166 161 179 191 157
148 159 162 157 166 153 129 96 105 92 112 101 76 53 35 19 7 0 351 348 341 329 323 319 311 307 306 293 277 252 232 205 204 207 198 196 186 178 167 172 201 145 171
157 154 154 135 134 125 109 107 129 122 114 97 77 59 40 25 10 2 354 348 341 333 326 311 313 320 343 331 295 272 241 217 208 207 185 193 183 179 172 176 202 162 177
154 154 153 116 104 105 122 140 134 120 104 89 71 56 39 20 7 355 348 342 336 330 322 316 309 309 329 338 324 287 258 233 218 200 193 203 192 178 179 180 191 187 174
155 155 131 114 120 141 148 143 132 113 98 85 64 46 31 13 5 353 344 338 331 327 322 316 311 309 308 322 322 314 279 246 227 207 209 204 188 184 184 184 191 180 177
149 151 129 127 151 152 153 143 130 118 102 83 65 42 30 17 5 348 343 330 322 321 320 315 310 307 306 308 309 308 318 261 247 221 213 203 190 186 186 185 194 175 183
155 161 158 148 158 153 152 142 130 120 102 77 54 33 17 1 350 341 337 329 325 324 317 312 308 305 301 297 293 297 301 333 246 228 220 206 207 197 186 186 185 174 174
158 157 152 143 144 148 148 138 125 112 90 55 28 11 357 348 338 333 337 338 329 322 315 316 315 310 303 295 292 289 297 305 296 247 217 223 203 209 203 190 183 178 176
160 165 163 162 153 130 128 132 121 113 81 29 13 8 356 339 329 329 328 328 328 323 322 313 311 307 303 298 290 285 286 268 257 251 230 228 195 212 219 195 184 180 179
166 172 168 167 171 171 158 123 108 85 61 29 20 8 342 304 307 282 298 307 318 319 320 313 309 308 304 294 298 308 299 294 237 244 250 223 207 211 210 200 188 182 180
184 183 179 178 180 174 163 134 121 97 70 335 334 22 285 315 317 305 351 318 310 316 315 309 308 304 307 292 280 288 292 255 243 214 235 240 220 223 216 209 195 185 180
194 189 194 192 186 178 173 160 149 136 321 330 335 332 326 323 337 318 301 305 303 309 305 302 301 301 277 287 279 238 246 248 247 230 217 228 231 224 222 220 209 195 177
199 193 198 196 193 187 182 169 171 161 298 320 330 331 327 322 328 322 314 310 319 318 309 315 314 310 307 295 290 280 265 243 227 236 241 226 238 229 219 228 223 200 150
201 202 194 197 191 191 190 190 172 220 288 315 332 326 316 319 324 335 315 318 317 319 317 321 313 311 307 303 284 272 244 236 216 226 233 220 220 226 205 222 191 150 166
211 204 199 193 192 187 191 175 182 239 273 329 304 307 308 318 318 323 326 319 315 319 321 323 329 330 343 340 299 285 243 196 201 205 237 232 225 221 208 175 152 158 182
214 204 196 194 190 180 188 189 190 229 295 298 300 326 318 307 316 322 325 320 314 322 328 327 332 354 23 27 33 23 42 57 105 90 97 75 61 80 193 160 158 171 191
213 198 192 186 181 177 176 181 209 235 281 289 321 315 325 308 315 316 312 313 318 316 322 330 41 27 57 47 51 33 32 19 19 80 63 110 81 59 1 181 180 195 197
202 192 178 173 171 169 166 173 188 198 279 354 334 325 337 316 311 312 301 309 320 323 338 5 36 51 74 62 59 33 35 26 11 23 58 70 116 110 69 110 199 226 211
197 183 169 168 164 157 151 157 163 109 113 51 321 335 2 328 340 311 312 318 318 333 77 78 57 35 89 75 63 53 29 22 21 16 19 123 144 104 165 199 267 265 193
181 172 155 155 152 145 141 146 139 137 112 51 21 21 345 22 43 321 308 310 331 90 83 82 59 69 85 83 88 75 51 21 36 19 0 50 67 130 135 175 260 200 178
150 152 150 146 142 146 150 178 197 172 118 67 43 54 72 74 89 340 313 356 104 108 116 129 108 129 81 105 93 80 64 50 40 21 10 22 79 113 107 80 84 112 153
130 132 139 137 141 141 144 131 354 158 112 71 59 82 82 75 84 19 336 26 102 126 125 144 131 2 74 8 36 267 44 42 21 21 22 18 27 74 73 76 93 114 112
115 125 127 127 126 114 101 117 130 157 156 151 105 126 91 45 223 179 358 174 144 155 145 172 84 30 14 24 26 348 316 40 346 357 16 21 19 40 79 85 73 75 105
99 107 111 111 109 106 118 154 288 317 12 78 89 67 122 168 249 10 332 180 156 175 160 184 154 311 209 88 359 20 36 59 97 27 13 12 27 28 39 56 60 64 110
88 94 95 99 91 95 102 61 322 320 72 74 212 169 193 189 241 288 279 175 194 184 200 208 180 222 118 24 41 59 39 81 43 104 43 359 39 15 26 46 68 68 121
80 74 76 79 74 75 37 32 352 307 310 208 194 175 201 211 210 236 222 216 223 209 212 214 199 228 158 20 112 165 131 30 139 125 107 37 52 6 21 60 71 66 101